Location: Casteau
(50.5142°N, 4.0161°E)
Time: 05:50:26
(UTC+00:00)

Vanguard 1 Rocket - Pass Details

Date: 02 August 2021
Orbit: 650 x 4226 km, 34.3° (Epoch: 21 September)

Event Time Altitude Azimuth Distance (km) Brightness Sun altitude
Rises 12:58:12 0° 261° (W) 6,796 12.1 54.4°
Reaches altitude 10° 13:04:12 10° 252° (WSW) 5,123 11.8 53.9°
Maximum altitude 13:14:29 28° 202° (SSW) 2,693 11.2 53.0°
Drops below altitude 10° 13:20:47 10° 146° (SE) 3,042 10.4 52.5°
Sets 13:23:21 0° 133° (SE) 3,693 10.6 52.2°
